Flag for Germany Weather past 2 weeks in Schleswig, Schleswig-Holstein, Germany

Now
43 °F

Overcast.


Feels Like: 40 °F
Forecast: 39 / 47 °F
Wind: 5 mph from West

Location: Schleswig

Current Time: Mar 5, 2015 at 5:30:57 PM

Latest Report: Mar 5, 2015 at 5:00 PM


Visibility: 19 mi

Pressure: 30.51 "Hg

Humidity: 86%

Dew point: 39 °F

Location of SchleswigLocation

Historic Weather in Schleswig — Graph

°F

Schleswig temperature yesterday

Maximum temperature yesterday: 44 °F (at 2:00 PM)
Minimum temperature yesterday: 32 °F (at 3:00 AM)
Average temperature yesterday: 37 °F

Past Weeks' High & Low Weather Summary

 TemperatureHumidityPressure
High46 °F (Mar 1, 2:00 PM)100% (Feb 20, 9:00 AM)30.51 "Hg (Feb 20, 9:00 AM)
Low32 °F (Mar 3, 8:00 PM)64% (Feb 28, 4:00 PM)29.21 "Hg (Feb 21, 12:00 PM)
Average38 °F89%29.77 "Hg
* Reported Feb 18 5:00 PM — Mar 5 4:00 PM, Schleswig, Weather by CustomWeather, © 2015

Note: Actual official high and low records may vary slightly from our data, if they occured in-between our weather recording intervals... More about our weather records

Advertising

Schleswig weather history for previous 24 hours

 ConditionsComfort  
Time TempWeatherWind HumidityBarometerVisibility
4:00 PM
Thu, Mar 5
45 °FOvercast.5 mph73%30.51 "Hg19 mi
3:00 PM45 °FOvercast.6 mph74%30.50 "Hg22 mi
2:00 PM44 °FOvercast.6 mph77%30.50 "Hg19 mi
1:00 PM44 °FOvercast.7 mph83%30.50 "Hg19 mi
12:00 PM43 °FOvercast.6 mph86%30.50 "Hg16 mi
11:00 AM42 °FOvercast.7 mph91%30.50 "Hg16 mi
9:00 AM38 °FOvercast.5 mph98%30.47 "Hg12 mi
8:00 AM36 °FScattered clouds.5 mph99%30.46 "Hg9 mi
7:00 AM35 °FPassing clouds.5 mph99%30.45 "Hg9 mi
6:00 AM34 °FPassing clouds.5 mph100%30.43 "Hg9 mi
5:00 AM34 °FClear.3 mph99%30.43 "Hg6 mi
3:00 AM34 °FClear.5 mph99%30.39 "Hg6 mi
2:00 AM33 °FClear.3 mph98%30.37 "Hg9 mi
1:00 AM34 °FClear.5 mph97%30.35 "Hg11 mi
12:00 AM35 °FClear.6 mph94%30.32 "Hg12 mi
11:00 PM
Wed, Mar 4
36 °FClear.6 mph93%30.28 "Hg12 mi
10:00 PM38 °FPassing clouds.7 mph89%30.22 "Hg12 mi
9:00 PM38 °FOvercast.7 mph89%30.16 "Hg19 mi
8:00 PM38 °FOvercast.8 mph93%30.10 "Hg16 mi
7:00 PM38 °FSprinkles. Low clouds.7 mph96%30.04 "Hg7 mi
6:00 PM39 °FSprinkles. Overcast.8 mph91%30.00 "Hg16 mi
5:00 PM40 °FLight rain. Overcast.8 mph92%29.97 "Hg16 mi
Weather by CustomWeather, © 2015

See weather overviewHow to use our weather pages